Location: Esterri de Aneo
(42.6284°N, 1.1223°E)
Time: 01:03:00
(UTC+00:00)

Cosmos 2369 - Pass Details

Date: 11 December 2025
Orbit: 839 x 854 km, 71.0° (Epoch: 17 January)

Event Time Altitude Azimuth Distance (km) Brightness Sun altitude
Rises 18:21:10 0° 195° (SSW) 3,404 7.2 -21.1°
Reaches altitude 10° 18:23:36 10° 194° (SSW) 2,474 6.4 -21.5°
Maximum altitude 18:29:15 71° 111° (ESE) 904 3.6 -22.6°
Enters shadow 18:31:01 45° 42° (NE) 1,158 4.0 -22.9°
